Temp
3 3 3 3 3 2 2 3 3 3 4 4 3 4 4 4 4 4 4 5 5 6 6 7 7 8 8 8 6 7 8 9 10 11 12 13 13 14 11 12 13 11 12 12 12 11 11
3 3 4 4 3 3 2 3 3 3 3 4 4 4 4 4 4 4 4 5 5 6 6 6 6 7 9 5 7 7 8 9 10 11 11 12 13 13 13 12 11 12 12 11 11 11 11
3 3 3 3 3 3 3 4 4 3 3 3 3 3 4 4 3 4 4 4 5 6 6 5 6 8 7 6 7 7 8 9 10 10 11 12 13 13 13 11 12 12 11 11 11 11 11
3 3 3 3 3 3 3 4 3 3 3 3 4 3 3 3 4 4 4 4 5 5 6 6 7 6 4 7 7 8 8 9 10 11 11 12 12 12 12 11 12 11 11 10 11 11 11
4 4 4 4 4 3 3 3 3 3 3 3 3 3 3 3 4 4 4 4 5 5 5 5 6 6 4 7 7 8 8 9 10 10 11 11 12 11 11 8 7 10 10 11 11 12 11
4 4 4 4 4 4 4 3 3 4 3 3 4 3 4 4 4 4 4 5 4 5 4 5 6 6 5 6 7 7 8 9 10 10 11 11 11 5 5 5 6 9 11 12 12 10 10
4 3 3 4 4 4 4 4 3 3 3 3 5 5 4 4 4 4 5 4 4 4 4 4 5 5 6 7 7 8 8 9 10 10 8 10 3 3 7 8 10 10 10 10 10 10 9
5 3 4 3 3 4 4 4 4 3 3 3 4 4 4 4 4 4 5 5 3 3 4 5 5 6 7 7 8 8 9 9 10 8 9 5 3 8 9 9 8 9 9 7 9 11 9
5 6 3 3 4 5 4 4 4 4 3 4 4 4 4 4 5 5 6 5 4 5 4 5 5 6 7 8 7 8 9 10 9 7 8 5 7 9 9 7 7 7 7 8 7 8 8
6 6 6 5 6 6 5 5 5 5 4 4 4 4 5 5 6 6 5 4 5 5 3 4 6 7 8 8 7 8 9 9 9 7 6 6 8 9 9 7 6 9 9 9 8 5 5
6 6 6 7 6 7 6 6 6 5 5 4 4 4 5 6 6 6 5 5 5 4 4 6 7 8 8 8 8 8 8 9 8 9 7 6 7 8 8 6 9 8 8 8 8 6 4
7 7 7 7 7 7 7 7 7 7 7 6 6 6 5 5 5 6 6 6 5 4 4 7 8 9 9 9 9 9 9 9 8 7 7 7 8 8 8 9 9 9 8 8 10 9 5
8 7 7 7 8 8 8 8 8 8 8 8 7 7 6 6 6 6 6 6 3 3 6 7 8 9 9 9 9 9 9 8 5 3 1 6 8 8 8 8 8 8 5 2 6 5 5
9 8 7 7 8 8 8 8 8 8 8 8 7 7 7 6 6 7 6 3 2 4 6 8 9 9 8 8 9 9 8 5 9 8 3 2 4 7 7 8 9 7 7 2 5 3 4
8 9 8 7 8 8 8 8 9 8 8 8 8 8 8 8 8 7 7 2 2 5 8 8 9 8 8 9 9 9 9 8 9 8 6 2 4 9 8 9 9 9 6 8 3 3 2
9 9 9 9 8 8 9 9 9 9 9 9 8 8 8 9 8 8 4 4 6 9 9 9 8 9 8 9 9 9 8 9 8 9 9 9 5 8 8 9 9 8 8 6 4 3 5
9 9 9 9 9 9 9 10 10 10 10 10 9 9 9 9 9 9 2 5 7 8 8 8 9 10 9 9 10 10 9 9 10 9 9 9 7 8 8 7 6 6 6 7 7 5 5
9 9 9 9 9 9 10 10 10 11 10 10 10 6 10 10 7 6 2 8 9 8 8 8 9 9 10 10 10 10 9 10 10 10 9 9 7 5 7 8 8 7 7 7 5 7 5
10 9 9 9 9 9 10 10 11 11 11 11 10 10 10 10 3 1 8 8 9 8 8 9 10 10 10 10 10 10 10 10 10 9 9 8 6 2 6 7 8 8 7 8 8 6 5
9 9 9 9 9 10 10 10 11 11 11 11 10 4 11 11 10 7 8 9 8 9 9 9 9 10 10 10 10 10 9 9 10 9 9 8 6 6 6 8 8 7 8 7 7 3 7
9 9 9 10 9 9 10 10 11 11 11 10 10 7 8 3 7 9 9 9 9 9 9 9 9 9 9 9 9 9 10 8 8 8 8 6 5 5 6 6 7 7 7 7 7 8 6
9 9 9 9 9 9 9 10 11 11 11 11 9 8 9 8 9 9 8 9 10 9 9 9 8 9 10 9 9 9 9 9 8 6 6 6 4 5 2 6 6 5 6 7 7 7 8
9 9 9 9 9 9 9 9 10 11 11 10 8 8 8 8 8 7 7 9 10 9 10 9 8 8 8 8 8 8 9 9 8 6 5 6 3 3 3 5 5 5 7 7 7 7 7
8 8 8 8 8 8 8 8 9 9 10 9 8 8 8 5 6 7 9 9 9 9 8 9 9 8 8 8 9 9 8 7 7 6 7 6 4 3 3 3 4 8 9 9 8 8 8
7 7 7 7 7 7 7 8 8 8 9 9 8 8 7 4 7 8 9 8 9 9 8 8 8 8 8 8 5 5 5 7 7 5 4 6 4 3 2 2 5 7 8 8 8 7 7
7 7 7 7 7 7 7 7 7 7 8 8 8 7 7 5 6 8 8 8 5 5 6 8 7 7 7 6 5 6 6 7 8 6 5 5 5 4 3 3 5 7 8 9 9 6 8
8 8 8 7 7 7 7 7 7 7 7 7 7 7 6 5 7 7 7 6 8 7 4 7 7 6 6 4 5 4 4 8 7 7 3 3 4 5 6 5 5 6 8 9 7 9 10
8 8 7 7 7 7 7 6 6 6 6 6 6 6 6 5 6 7 7 7 7 7 5 7 6 5 4 4 4 4 4 6 7 6 3 3 2 3 4 5 3 7 7 8 8 10 11
8 7 7 7 7 7 6 6 6 6 6 5 5 5 5 5 7 7 6 6 6 6 7 7 7 6 7 4 3 4 5 5 5 6 6 5 6 5 5 5 7 9 10 11 11 11 10
Height
1509 1505 1500 1496 1491 1487 1484 1480 1477 1474 1472 1471 1471 1471 1473 1473 1474 1476 1478 1478 1480 1482 1483 1485 1489 1493 1498 1502 1510 1510 1512 1512 1513 1514 1515 1516 1518 1519 1522 1525 1526 1531 1534 1535 1537 1538 1540
1511 1507 1503 1498 1494 1490 1486 1483 1480 1477 1474 1474 1473 1474 1476 1476 1477 1478 1479 1480 1482 1484 1486 1489 1491 1495 1500 1507 1513 1512 1512 1513 1514 1515 1516 1517 1520 1520 1523 1526 1529 1531 1534 1536 1537 1538 1540
1514 1509 1505 1500 1496 1492 1488 1484 1482 1480 1477 1476 1476 1475 1477 1477 1478 1481 1482 1482 1483 1486 1487 1491 1494 1497 1504 1514 1514 1513 1514 1515 1516 1516 1517 1518 1520 1520 1525 1529 1530 1533 1536 1537 1538 1538 1539
1516 1512 1508 1503 1498 1494 1490 1486 1484 1483 1481 1480 1479 1478 1478 1479 1481 1483 1484 1485 1486 1489 1492 1496 1497 1504 1513 1516 1515 1515 1516 1517 1519 1519 1520 1521 1523 1522 1525 1530 1531 1533 1537 1543 1538 1538 1538
1519 1515 1510 1505 1500 1496 1492 1489 1486 1485 1483 1482 1482 1481 1482 1484 1485 1487 1488 1488 1487 1492 1497 1499 1503 1509 1517 1517 1516 1517 1517 1518 1520 1521 1522 1524 1525 1526 1530 1534 1541 1537 1545 1541 1541 1538 1539
1522 1517 1512 1508 1503 1499 1494 1491 1489 1487 1485 1483 1483 1485 1486 1488 1489 1490 1490 1490 1491 1497 1502 1506 1509 1513 1519 1521 1519 1519 1519 1521 1522 1523 1525 1525 1526 1533 1537 1542 1557 1546 1541 1537 1538 1539 1538
1524 1519 1515 1511 1506 1502 1497 1494 1493 1491 1489 1486 1483 1487 1490 1491 1492 1493 1494 1494 1500 1505 1507 1512 1514 1512 1519 1521 1521 1523 1523 1523 1524 1525 1528 1528 1540 1554 1544 1540 1538 1538 1540 1543 1541 1538 1540
1527 1522 1518 1514 1509 1505 1501 1498 1497 1495 1493 1491 1490 1492 1494 1495 1496 1497 1498 1498 1503 1509 1513 1516 1519 1519 1521 1521 1522 1522 1523 1525 1526 1529 1528 1537 1551 1543 1541 1539 1539 1541 1543 1550 1542 1538 1541
1530 1526 1521 1517 1512 1509 1505 1503 1501 1500 1499 1498 1497 1498 1499 1500 1500 1502 1502 1505 1507 1510 1515 1522 1522 1523 1523 1524 1525 1526 1526 1525 1528 1532 1532 1541 1544 1541 1539 1542 1544 1546 1547 1548 1550 1543 1537
1532 1529 1524 1519 1517 1513 1510 1508 1506 1505 1504 1502 1502 1503 1503 1504 1507 1506 1506 1508 1509 1511 1520 1533 1523 1525 1526 1526 1529 1529 1528 1529 1529 1536 1537 1542 1542 1541 1541 1545 1546 1545 1545 1545 1547 1553 1561
1533 1531 1528 1524 1520 1518 1515 1513 1512 1510 1510 1508 1508 1508 1508 1509 1510 1510 1511 1510 1508 1509 1531 1537 1531 1529 1528 1529 1531 1531 1530 1530 1533 1534 1538 1547 1543 1543 1543 1546 1542 1547 1545 1546 1545 1552 1561
1536 1533 1530 1527 1525 1522 1520 1518 1516 1516 1515 1513 1513 1513 1512 1512 1511 1511 1509 1507 1508 1515 1541 1534 1530 1529 1529 1529 1531 1532 1533 1533 1535 1537 1538 1543 1543 1543 1543 1543 1544 1544 1545 1546 1544 1547 1560
1538 1535 1532 1530 1527 1525 1523 1522 1521 1520 1518 1517 1517 1516 1515 1513 1513 1512 1510 1508 1519 1537 1538 1535 1533 1530 1530 1532 1532 1533 1534 1537 1543 1556 1563 1547 1543 1543 1543 1545 1545 1546 1554 1580 1560 1563 1557
1542 1537 1535 1532 1529 1527 1525 1524 1523 1522 1521 1520 1519 1517 1516 1514 1512 1511 1512 1514 1538 1540 1535 1531 1530 1531 1533 1534 1534 1534 1536 1544 1535 1536 1555 1564 1563 1543 1543 1544 1544 1546 1549 1577 1568 1575 1560
1544 1541 1537 1534 1531 1529 1527 1525 1523 1522 1521 1520 1520 1519 1516 1515 1513 1512 1513 1531 1544 1537 1532 1534 1534 1537 1537 1535 1534 1533 1534 1536 1536 1536 1547 1563 1556 1542 1542 1542 1544 1543 1552 1546 1566 1565 1574
1547 1543 1540 1537 1533 1531 1528 1525 1523 1521 1519 1519 1520 1519 1518 1516 1514 1513 1516 1531 1532 1530 1531 1533 1534 1531 1535 1534 1536 1535 1538 1536 1537 1537 1537 1539 1555 1541 1542 1542 1542 1544 1546 1558 1562 1576 1560
1550 1546 1542 1539 1536 1532 1529 1526 1524 1521 1519 1518 1519 1519 1520 1518 1517 1516 1534 1536 1533 1532 1532 1534 1531 1530 1533 1533 1532 1532 1535 1536 1535 1537 1537 1537 1545 1546 1542 1543 1542 1548 1548 1546 1549 1553 1559
1552 1549 1544 1540 1537 1534 1530 1526 1523 1522 1520 1520 1520 1521 1521 1520 1522 1526 1537 1532 1533 1534 1533 1533 1532 1531 1532 1531 1531 1531 1533 1532 1533 1535 1537 1537 1542 1551 1541 1531 1530 1534 1538 1540 1555 1542 1544
1553 1550 1547 1544 1540 1535 1532 1528 1525 1522 1521 1521 1521 1522 1522 1520 1533 1538 1534 1534 1534 1535 1534 1533 1532 1532 1531 1531 1534 1531 1532 1533 1533 1535 1538 1538 1545 1564 1545 1539 1532 1531 1530 1529 1529 1534 1538
1555 1551 1549 1546 1542 1538 1533 1530 1527 1524 1522 1522 1523 1526 1524 1524 1526 1528 1530 1532 1534 1534 1534 1534 1533 1532 1532 1532 1530 1532 1532 1533 1534 1535 1536 1537 1541 1542 1546 1530 1529 1531 1525 1523 1525 1540 1518
1556 1554 1551 1547 1544 1541 1536 1532 1528 1525 1524 1524 1524 1528 1528 1533 1529 1528 1529 1530 1531 1533 1533 1534 1533 1533 1533 1533 1531 1531 1529 1533 1533 1534 1536 1538 1543 1538 1532 1528 1525 1520 1517 1516 1515 1506 1512
1558 1555 1553 1550 1546 1542 1539 1536 1532 1528 1525 1525 1527 1529 1529 1529 1530 1529 1530 1530 1530 1531 1532 1532 1533 1531 1530 1532 1532 1533 1530 1529 1529 1534 1535 1534 1541 1533 1538 1521 1520 1515 1505 1503 1500 1497 1493
1558 1556 1554 1551 1548 1545 1541 1538 1535 1531 1528 1527 1529 1530 1530 1531 1530 1532 1532 1530 1529 1529 1530 1530 1530 1530 1530 1528 1528 1527 1527 1526 1526 1528 1533 1533 1538 1540 1533 1522 1517 1508 1484 1485 1483 1481 1481
1557 1556 1554 1552 1550 1547 1543 1540 1537 1534 1532 1531 1530 1530 1529 1533 1530 1530 1529 1530 1530 1530 1531 1530 1529 1530 1529 1527 1525 1521 1519 1518 1519 1520 1523 1527 1533 1537 1536 1526 1528 1478 1472 1471 1473 1467 1466
1557 1555 1554 1552 1550 1548 1545 1542 1540 1537 1535 1533 1532 1531 1531 1531 1528 1526 1527 1527 1527 1528 1529 1528 1528 1528 1527 1527 1527 1525 1521 1516 1514 1516 1517 1520 1528 1537 1540 1538 1501 1474 1467 1469 1471 1464 1456
1556 1555 1553 1551 1550 1547 1546 1543 1541 1540 1537 1535 1533 1532 1532 1532 1529 1527 1525 1525 1527 1527 1527 1526 1526 1526 1526 1527 1530 1530 1529 1518 1514 1519 1520 1521 1523 1533 1535 1537 1511 1472 1467 1466 1466 1473 1449
1553 1552 1551 1550 1548 1546 1544 1543 1542 1540 1538 1536 1534 1532 1532 1531 1526 1527 1526 1525 1524 1524 1525 1524 1524 1524 1525 1528 1531 1533 1532 1515 1517 1516 1527 1529 1527 1525 1524 1521 1496 1468 1467 1468 1478 1462 1447
1551 1550 1549 1548 1546 1545 1543 1542 1541 1539 1537 1536 1534 1532 1531 1529 1524 1524 1523 1523 1523 1524 1524 1523 1524 1523 1525 1528 1530 1526 1526 1515 1513 1510 1515 1518 1526 1525 1523 1521 1507 1463 1468 1469 1453 1447 1447
1549 1548 1546 1545 1544 1542 1541 1540 1539 1537 1536 1534 1533 1530 1528 1526 1522 1520 1519 1520 1519 1520 1523 1522 1519 1517 1518 1523 1523 1521 1519 1516 1514 1512 1500 1506 1495 1499 1496 1476 1456 1454 1448 1448 1448 1447 1447
Wind_Speed
24 25 24 26 25 22 21 21 18 15 14 13 12 13 11 11 10 9 6 7 8 8 10 17 13 23 17 16 9 9 5 7 11 14 14 11 6 3 5 5 5 5 3 6 5 3 1
25 25 25 24 24 23 22 18 20 18 14 11 9 9 10 9 7 8 6 9 12 11 16 21 19 27 18 13 11 9 7 7 11 12 6 7 5 9 9 6 4 5 8 8 4 3 2
25 26 25 23 23 22 21 19 16 16 15 12 11 9 8 8 11 8 7 10 13 23 21 20 18 21 21 12 13 15 9 10 9 10 11 10 9 4 7 4 6 7 4 1 3 2 0
26 27 26 27 27 25 21 19 16 16 14 11 10 10 12 12 10 10 11 12 15 19 18 17 20 19 10 14 15 12 8 8 7 9 10 11 10 11 5 10 4 3 3 2 1 1 1
29 29 29 29 28 28 24 19 16 12 13 14 10 9 14 13 11 13 14 16 15 21 23 23 21 14 8 13 16 12 11 10 10 11 13 10 7 6 4 4 5 4 0 2 1 3 0
25 25 24 25 24 27 25 19 17 16 18 16 12 12 14 12 16 24 22 28 26 27 21 16 11 10 10 9 13 8 10 8 10 10 8 6 6 4 5 5 3 1 1 2 2 2 2
27 28 28 27 25 24 25 20 18 17 18 19 16 17 15 17 22 22 30 20 16 15 29 15 19 27 19 13 13 11 10 8 6 3 3 6 9 3 2 3 3 3 2 2 3 2 3
27 28 29 28 25 23 24 20 19 17 20 20 25 23 22 20 19 18 9 14 14 17 22 26 23 21 13 10 7 9 7 2 2 4 3 7 3 1 3 4 5 5 3 3 3 2 5
26 27 27 27 26 26 21 21 21 16 17 19 21 21 17 14 17 24 31 28 18 15 8 14 14 11 10 11 6 9 6 6 6 5 4 6 4 1 2 5 5 4 4 2 2 6 4
24 26 27 26 26 26 25 23 21 18 15 18 17 16 23 33 23 23 18 8 4 3 5 9 12 9 10 3 5 8 6 4 6 5 5 6 1 1 3 3 3 2 2 2 4 5 2
21 23 25 25 24 23 23 23 20 18 17 20 21 17 25 16 12 10 6 6 1 2 6 6 4 5 6 5 3 7 8 8 4 3 4 3 3 1 3 3 2 2 1 1 2 2 4
20 21 22 23 21 21 20 19 19 17 12 14 17 17 18 7 6 7 15 5 1 3 6 1 3 3 3 3 2 3 3 6 3 6 6 3 1 2 1 0 1 3 3 1 2 2 2
23 20 20 21 21 19 17 16 13 11 12 12 13 10 2 7 7 10 15 5 5 7 3 1 2 1 3 1 4 2 2 2 3 5 4 5 1 1 1 2 1 2 4 3 3 1 5
25 23 21 20 19 18 14 14 12 11 9 3 4 8 8 9 11 11 7 4 10 4 3 3 1 2 3 4 0 3 3 2 2 3 3 4 5 3 4 3 2 4 5 4 4 2 4
25 24 23 21 19 18 15 10 6 4 5 5 6 11 12 10 7 5 1 6 6 5 4 4 1 2 0 2 1 2 3 2 2 4 4 4 4 2 3 2 2 2 0 3 2 1 3
25 25 23 23 20 18 16 11 10 8 4 2 3 4 11 10 8 6 6 5 3 3 2 3 1 2 2 2 1 3 4 1 2 1 2 3 2 4 2 1 3 2 2 3 2 2 5
24 25 25 24 22 20 19 15 10 10 6 5 5 3 15 7 7 9 4 3 4 7 7 3 4 3 3 2 1 2 3 1 2 3 1 1 4 3 3 6 7 2 2 4 2 4 4
22 22 24 24 24 22 21 20 14 9 5 4 3 3 11 8 5 5 2 2 4 0 2 3 2 4 2 3 1 1 3 1 6 5 1 2 3 4 9 5 8 5 7 6 4 4 4
22 22 22 23 24 24 23 21 17 11 6 2 3 4 9 6 3 2 1 1 1 4 4 2 1 1 1 1 2 1 3 4 7 4 2 2 2 3 6 5 3 4 5 6 3 2 7
21 22 22 22 22 23 24 23 19 12 7 4 2 2 4 6 6 6 3 3 1 1 1 2 1 2 1 2 2 1 3 4 8 4 3 2 2 6 6 4 2 4 6 7 8 4 6
19 21 22 23 23 22 22 23 21 14 9 2 3 2 2 1 4 2 2 1 3 1 1 1 2 2 1 2 3 3 4 3 4 6 3 4 4 3 7 9 8 13 16 15 17 18 11
17 19 21 23 25 24 22 21 21 18 9 10 3 3 2 2 0 2 0 3 3 2 4 3 3 3 3 3 2 3 3 2 5 2 5 4 4 2 5 9 9 14 17 18 21 22 20
14 17 19 21 23 25 24 22 21 20 15 8 5 3 1 1 0 2 2 1 1 3 2 4 2 1 4 4 5 9 10 10 8 7 7 5 3 2 5 5 10 10 10 8 6 6 14
11 13 16 18 20 22 23 23 22 20 18 14 10 4 1 2 1 2 2 1 1 3 2 2 3 2 2 6 15 16 19 21 17 12 13 4 4 2 4 5 3 6 4 6 9 8 15
8 11 12 14 17 19 20 20 22 19 16 13 11 6 3 2 1 3 2 3 4 5 5 6 7 5 8 9 4 5 4 3 2 2 7 9 5 2 2 2 11 12 4 3 4 7 8
8 10 12 14 14 15 17 18 17 19 16 12 11 9 3 2 3 3 2 2 3 2 4 3 3 6 3 1 2 2 3 4 2 2 6 4 3 4 1 2 6 5 2 5 3 6 5
10 11 14 14 15 15 15 15 16 16 18 16 11 9 5 4 3 4 3 3 3 2 2 2 2 1 4 2 1 3 4 2 2 3 2 2 2 10 9 6 9 9 6 3 3 6 4
12 15 18 18 17 15 14 13 13 14 15 16 13 13 10 4 13 9 8 9 5 4 3 2 2 1 2 2 3 3 3 4 2 4 6 8 6 5 4 5 10 7 4 7 7 4 11
15 17 21 19 19 17 13 12 13 12 14 15 14 14 14 10 11 19 20 18 18 15 5 6 3 3 7 2 2 1 2 2 3 4 1 2 7 5 11 9 10 20 14 15 9 9 12
Wind_Direction
29 26 25 24 27 30 32 37 38 40 42 41 66 85 102 113 121 115 120 116 142 151 110 126 140 154 124 93 68 62 61 103 132 138 118 127 129 105 119 125 95 90 109 81 109 86 310
29 27 25 22 24 27 29 30 39 45 44 60 72 82 102 106 94 117 101 98 129 139 131 123 149 154 132 74 75 79 89 107 117 130 123 132 103 98 98 95 71 118 121 129 121 138 242
32 32 29 28 22 23 28 32 39 47 49 55 70 59 93 94 98 119 106 110 120 111 110 136 136 146 102 68 88 74 86 117 123 137 125 115 127 126 111 94 101 112 97 106 190 154 197
30 30 29 25 22 23 29 38 51 49 56 61 65 54 95 100 100 101 94 99 130 135 130 121 105 138 92 74 80 76 61 121 135 131 139 128 126 98 81 123 93 81 59 55 276 172 291
22 22 28 28 27 28 29 44 48 48 52 57 72 97 109 100 99 95 102 98 124 132 120 123 123 115 125 83 70 88 101 79 104 110 113 118 97 75 89 79 36 16 182 171 232 233 84
25 25 23 20 25 29 31 39 44 56 64 55 62 99 108 89 105 95 106 111 101 111 115 116 95 89 124 75 64 63 94 102 101 95 84 62 57 67 25 54 175 130 21 358 117 260 294
26 28 28 29 28 31 31 37 42 64 64 51 65 121 110 105 108 113 116 105 95 68 71 79 78 106 123 81 63 80 77 87 74 53 93 43 67 93 105 53 111 114 89 10 89 308 317
29 30 29 31 36 36 33 42 46 76 72 74 90 99 111 106 99 126 116 95 97 111 71 73 78 89 79 67 68 78 66 104 47 99 84 34 95 151 90 52 71 56 73 356 323 33 346
31 29 32 35 37 43 45 44 61 68 80 95 94 102 92 104 95 105 99 105 105 92 87 32 36 47 58 67 47 22 43 73 85 58 65 111 161 242 98 53 73 53 108 57 238 328 290
31 33 34 42 44 44 47 54 61 66 74 104 104 93 99 113 87 96 93 77 93 130 93 4 351 34 32 49 57 30 40 53 40 111 101 97 250 339 89 70 82 121 45 28 5 40 289
34 34 37 40 53 47 47 51 60 69 86 100 110 115 124 95 90 75 11 349 332 173 81 304 303 332 45 70 122 24 28 61 77 87 84 243 141 8 82 205 154 147 80 6 20 345 36
34 36 36 40 46 58 51 53 52 60 82 110 114 129 131 87 50 24 1 353 156 41 53 299 306 338 52 35 71 73 42 71 82 58 41 104 58 43 54 56 195 34 26 321 315 316 300
32 38 36 38 41 52 60 56 68 76 71 101 116 126 37 346 340 345 348 336 41 68 300 150 229 118 83 94 29 102 89 61 113 77 7 342 188 130 112 42 86 87 60 4 340 313 231
32 32 39 39 39 42 54 64 72 77 85 59 312 326 326 320 311 318 335 56 65 251 217 282 4 17 64 18 292 175 172 63 4 101 118 114 332 177 163 209 201 200 142 151 234 253 269
35 35 31 35 39 38 35 41 61 46 17 45 58 50 37 33 19 18 54 53 162 209 135 169 157 112 284 184 131 20 51 89 53 51 119 112 289 127 187 7 101 345 206 167 95 52 31
30 32 35 34 30 31 35 24 10 13 45 8 21 5 11 20 18 21 67 97 69 99 130 134 219 184 126 178 153 176 186 265 127 36 74 191 37 207 145 63 263 162 287 46 5 350 284
29 27 28 32 35 27 23 25 25 15 33 82 57 26 7 8 40 45 90 77 48 23 32 16 359 73 127 181 270 148 156 188 156 196 201 253 114 289 101 199 182 122 255 209 190 167 209
34 32 27 25 27 32 27 20 21 30 35 75 57 55 14 20 44 44 55 70 118 230 324 304 266 37 149 186 253 130 163 142 170 150 204 205 157 221 220 249 181 173 193 173 142 256 234
26 33 32 28 24 24 27 27 21 24 45 36 68 51 23 29 91 11 143 64 92 182 216 261 221 38 349 276 171 149 122 157 158 155 229 154 268 344 352 355 325 205 215 208 207 133 212
26 27 27 31 30 25 23 24 25 23 26 73 70 35 51 65 76 124 130 151 119 238 301 318 312 353 271 249 187 193 186 196 186 189 155 85 239 195 202 211 142 229 225 218 202 194 229
26 27 27 24 27 30 26 23 22 31 32 74 63 88 45 329 5 47 80 241 129 225 218 273 283 234 285 305 196 216 205 155 186 190 161 147 240 228 259 272 263 259 255 239 231 235 223
27 26 25 25 24 24 27 28 25 23 36 61 62 52 108 123 179 17 321 210 200 171 174 245 201 316 193 231 119 284 43 223 202 174 169 193 259 312 268 260 269 270 261 251 245 246 250
28 25 23 22 21 22 23 24 27 29 35 59 66 59 18 167 197 75 234 198 161 135 191 199 193 4 287 254 292 281 267 250 207 165 196 179 186 18 268 307 311 287 252 221 214 212 223
20 21 22 21 19 20 22 21 23 25 28 35 34 43 36 278 120 196 165 35 289 253 262 333 231 172 253 301 303 279 259 255 250 236 196 168 151 171 273 341 309 239 266 231 218 228 222
355 1 7 11 12 16 19 19 21 23 23 25 28 27 7 273 250 324 201 218 271 265 251 252 257 257 283 318 345 337 339 334 297 249 218 185 137 297 256 234 287 304 343 147 192 286 220
338 344 349 350 352 0 9 13 13 20 20 18 21 16 348 335 260 320 264 247 195 228 327 222 248 270 280 87 50 308 276 253 295 340 21 75 117 155 52 247 259 239 183 138 132 291 256
325 333 337 338 339 340 348 356 4 7 15 13 16 13 3 297 279 265 241 218 197 184 196 206 226 124 163 93 155 212 255 269 262 213 160 98 225 219 232 264 278 252 206 144 89 247 208
309 316 318 320 320 330 331 333 346 354 1 4 2 0 356 291 287 257 250 244 244 217 160 179 36 213 104 160 174 255 216 252 279 183 180 175 165 198 194 230 266 194 121 175 223 222 200
287 297 303 308 314 310 321 319 321 335 342 349 349 346 342 308 277 288 277 260 252 244 251 225 268 164 199 132 230 243 280 280 193 276 195 237 197 189 192 217 231 200 216 236 260 233 220